Weather History for Altus AFB, OK

Change the Weather History Date:

Monday, February 25, 2013

  Actual Average Record
Temperature  
Mean Temperature 37 °F -  
Max Temperature 42 °F 54 °F 42 °F (2014)
Min Temperature 32 °F 31 °F 29 °F (2014)
Degree Days  
Heating Degree Days 28    
Moisture  
Dew Point 37 °F    
Average Humidity 98    
Maximum Humidity 100    
Minimum Humidity 87    
Precipitation  
Precipitation 0.95 in - - ()
Sea Level Pressure  
Sea Level Pressure 29.62 in    
Wind  
Wind Speed 23 mph (North)    
Max Wind Speed 32 mph    
Max Gust Speed 46 mph    
Visibility 6 miles    
Events Rain , Snow , Thunderstorm    
Averages and records for this station are not official NWS values.
T = Trace of Precipitation, MM = Missing Value Source: NWS Daily Summary

Daily Weather History Graph

Daily Weather History Graph

Search for Another Location

Airport:

Trip Planner

Search our weather history database for the weather conditions in past years. The results will help you decide how hot, cold, wet, or windy it might be!

Date:

Astronomy

Feb. 25, 2013 Rise Set
Actual Time 7:10 AM CST 6:29 PM CST
Civil Twilight 6:45 AM CST 6:55 PM CST
Nautical Twilight 6:16 AM CST 7:24 PM CST
Astronomical Twilight 5:47 AM CST 7:53 PM CST
Moon 6:41 PM CST (2/25) 6:43 AM CST (2/25)
Length of Visible Light 12h 09m
Length of Day
11h 18m
Full, 100% of the Moon is Illuminated
Feb 25
Full
Feb 25
Full
Mar 4
Last Quarter
Mar 11
New
Mar 19
First Quarter

Hourly Weather History & Observations

Time (CST) Temp. Windchill Dew Point Humidity Pressure Visibility Wind Dir Wind Speed Gust Speed Precip Events Conditions
12:03 AM 39.2 °F 29.8 °F 39.2 °F 100% 29.72 in 6.0 mi North 18.4 mph - N/A Rain , Thunderstorm Thunderstorms and Rain
12:08 AM 39.2 °F 30.5 °F 39.2 °F 100% 29.72 in 6.0 mi North 16.1 mph - N/A Rain , Thunderstorm Rain
12:09 AM 39.2 °F 29.8 °F 39.2 °F 100% 29.72 in 6.0 mi North 18.4 mph - N/A Rain , Thunderstorm Rain
12:13 AM 39.2 °F 29.6 °F 39.2 °F 100% 29.70 in 6.0 mi NNE 19.6 mph - N/A Rain , Thunderstorm Heavy Thunderstorms and Rain
12:14 AM 39.2 °F 29.0 °F 39.2 °F 100% 29.70 in 5.0 mi NNE 21.9 mph 26.5 mph N/A Rain , Thunderstorm Heavy Thunderstorms and Rain
12:21 AM 39.2 °F 27.4 °F 39.2 °F 100% 29.63 in 4.0 mi NE 29.9 mph 33.4 mph N/A Rain , Thunderstorm Heavy Thunderstorms and Rain
12:24 AM 39.2 °F 27.2 °F 39.2 °F 100% 29.62 in 2.5 mi NE 31.1 mph 38.0 mph N/A Rain , Thunderstorm Heavy Thunderstorms and Rain
12:28 AM 39.2 °F 27.2 °F 39.2 °F 100% 29.60 in 2.5 mi NE 31.1 mph 38.0 mph N/A Rain Light Rain
12:32 AM 39.2 °F 27.8 °F 39.2 °F 100% 29.62 in 3.0 mi NE 27.6 mph 38.0 mph N/A Rain Heavy Rain
12:35 AM 39.2 °F 27.2 °F 39.2 °F 100% 29.62 in 4.0 mi NE 31.1 mph 36.8 mph N/A Rain Rain
12:39 AM 39.2 °F 27.6 °F 39.2 °F 100% 29.62 in 6.0 mi NE 28.8 mph 36.8 mph N/A Rain Light Rain
12:43 AM 39.2 °F 27.6 °F 39.2 °F 100% 29.62 in 8.0 mi NE 28.8 mph 36.8 mph N/A Rain Light Rain
12:55 AM 39.7 °F 28.3 °F 39.6 °F 99% 29.61 in 9.0 mi NE 28.8 mph 35.7 mph 0.19 in Rain Light Rain
1:21 AM 41.0 °F 31.6 °F 41.0 °F 100% 29.61 in 9.0 mi NE 20.7 mph 32.2 mph N/A Rain Light Rain
1:31 AM 41.0 °F 32.2 °F 41.0 °F 100% 29.63 in 8.0 mi North 18.4 mph - N/A Rain , Thunderstorm Rain
1:32 AM 41.0 °F 32.2 °F 41.0 °F 100% 29.63 in 8.0 mi NNE 18.4 mph - N/A Rain , Thunderstorm Thunderstorms and Rain
1:35 AM 41.0 °F 31.9 °F 41.0 °F 100% 29.63 in 8.0 mi NNE 19.6 mph - N/A Rain , Thunderstorm Thunderstorms and Rain
1:42 AM 41.0 °F 32.2 °F 41.0 °F 100% 29.63 in 6.0 mi NE 18.4 mph - N/A Rain , Thunderstorm Thunderstorms and Rain
1:45 AM 41.0 °F 32.2 °F 41.0 °F 100% 29.63 in 4.0 mi NE 18.4 mph - N/A Rain , Thunderstorm Heavy Thunderstorms and Rain
1:55 AM 41.2 °F 32.7 °F 41.0 °F 99% 29.63 in 3.0 mi NE 17.3 mph - 0.12 in Rain , Thunderstorm Heavy Thunderstorms and Rain
2:00 AM 41.0 °F 31.6 °F 41.0 °F 100% 29.62 in 4.0 mi NE 20.7 mph - N/A Rain , Thunderstorm Heavy Thunderstorms and Rain
2:07 AM 41.0 °F 32.2 °F 41.0 °F 100% 29.62 in 6.0 mi NNE 18.4 mph - N/A Rain , Thunderstorm Thunderstorms and Rain
2:15 AM 41.0 °F 32.2 °F 41.0 °F 100% 29.62 in 6.0 mi NNE 18.4 mph - N/A Rain , Thunderstorm Heavy Thunderstorms and Rain
2:18 AM 41.0 °F 31.4 °F 41.0 °F 100% 29.61 in 4.0 mi NE 21.9 mph - N/A Rain , Thunderstorm Heavy Thunderstorms and Rain
2:21 AM 41.0 °F 31.4 °F 41.0 °F 100% 29.61 in 2.5 mi NE 21.9 mph - N/A Rain , Thunderstorm Heavy Thunderstorms and Rain
2:23 AM 41.0 °F 31.4 °F 41.0 °F 100% 29.62 in 2.5 mi NE 21.9 mph - N/A Rain , Thunderstorm Heavy Thunderstorms and Rain
2:27 AM 41.0 °F 30.2 °F 41.0 °F 100% 29.60 in 3.0 mi NE 27.6 mph - N/A Rain , Thunderstorm Thunderstorms and Rain
2:40 AM 41.0 °F 30.7 °F 41.0 °F 100% 29.56 in 5.0 mi NE 25.3 mph 36.8 mph N/A Rain , Thunderstorm Light Thunderstorms and Rain
2:48 AM 41.0 °F 31.6 °F 41.0 °F 100% 29.57 in 10.0 mi NE 20.7 mph - N/A Rain Light Rain
2:55 AM 41.2 °F 32.1 °F 40.8 °F 99% 29.57 in 10.0 mi NE 19.6 mph - 0.23 in Rain , Thunderstorm Light Rain
3:00 AM 42.8 °F 34.0 °F 42.8 °F 100% 29.57 in 10.0 mi NE 20.7 mph 26.5 mph N/A Thunderstorm Light Drizzle
3:47 AM 42.8 °F 34.3 °F 42.8 °F 100% 29.56 in 5.0 mi North 19.6 mph - N/A Rain Heavy Rain
3:55 AM 42.3 °F 33.8 °F 42.1 °F 99% 29.57 in 7.0 mi North 18.4 mph - 0.07 in Rain Rain
3:58 AM 42.8 °F 37.0 °F 42.8 °F 100% 29.63 in 10.0 mi NW 10.4 mph - N/A Rain Light Rain
4:55 AM 40.8 °F 32.0 °F 40.6 °F 99% 29.60 in 10.0 mi North 18.4 mph - 0.05 in   Light Drizzle
5:24 AM 41.0 °F 32.5 °F 41.0 °F 100% 29.60 in 10.0 mi NNE 17.3 mph - N/A   Light Drizzle
5:29 AM 41.0 °F 32.5 °F 41.0 °F 100% 29.60 in 10.0 mi North 17.3 mph - N/A   Overcast
5:34 AM 41.0 °F 31.9 °F 41.0 °F 100% 29.60 in 10.0 mi North 19.6 mph - N/A   Overcast
5:35 AM 41.0 °F 31.9 °F 41.0 °F 100% 29.60 in 10.0 mi North 19.6 mph - N/A Rain Light Rain
5:38 AM 41.0 °F 33.1 °F 41.0 °F 100% 29.61 in 10.0 mi North 15.0 mph - N/A Rain Light Rain
5:55 AM 40.5 °F 31.5 °F 40.3 °F 99% 29.60 in 10.0 mi North 18.4 mph - 0.01 in Rain Light Rain
5:58 AM 41.0 °F 32.8 °F 39.2 °F 93% 29.61 in 10.0 mi North 16.1 mph - N/A   Overcast
6:03 AM 41.0 °F 32.8 °F 39.2 °F 93% 29.61 in 10.0 mi North 16.1 mph - N/A Rain Light Rain
6:24 AM 39.2 °F 28.5 °F 39.2 °F 100% 29.56 in 10.0 mi NNE 24.2 mph - N/A Rain Light Rain
6:33 AM 39.2 °F 28.3 °F 39.2 °F 100% 29.55 in 10.0 mi NNE 25.3 mph - N/A   Overcast
6:55 AM 38.8 °F 27.3 °F 38.7 °F 99% 29.53 in 10.0 mi NNE 27.6 mph 33.4 mph 0.01 in   Overcast
7:22 AM 39.2 °F 28.7 °F 39.2 °F 100% 29.55 in 10.0 mi NE 23.0 mph 31.1 mph N/A   Overcast
7:35 AM 39.2 °F 27.8 °F 39.2 °F 100% 29.52 in 10.0 mi NE 27.6 mph 35.7 mph N/A   Overcast
7:55 AM 40.5 °F 28.9 °F 40.3 °F 99% 29.48 in 10.0 mi NE 31.1 mph 46.0 mph 0.01 in   Light Drizzle
7:56 AM 41.0 °F 29.8 °F 41.0 °F 100% 29.48 in 10.0 mi NE 29.9 mph 46.0 mph N/A   Mostly Cloudy
8:02 AM 41.0 °F 30.0 °F 41.0 °F 100% 29.49 in 10.0 mi NE 28.8 mph 40.3 mph N/A   Mostly Cloudy
8:08 AM 41.0 °F 29.7 °F 41.0 °F 100% 29.49 in 10.0 mi NE 31.1 mph 40.3 mph N/A   Mostly Cloudy
8:13 AM 41.0 °F 29.5 °F 41.0 °F 100% 29.50 in 10.0 mi NE 32.2 mph 42.6 mph N/A   Mostly Cloudy
8:55 AM 41.0 °F 31.1 °F 40.8 °F 99% 29.55 in 10.0 mi NE 23.0 mph 39.1 mph 0.00 in   Overcast
9:55 AM 39.4 °F 29.5 °F 38.3 °F 96% 29.60 in 10.0 mi NNE 20.7 mph 26.5 mph N/A   Overcast
10:55 AM 36.7 °F 26.0 °F 36.1 °F 98% 29.61 in 10.0 mi North 20.7 mph - 0.05 in Rain Heavy Rain
11:29 AM 35.6 °F 24.0 °F 35.6 °F 100% 29.61 in 10.0 mi North 23.0 mph 28.8 mph N/A   Overcast
11:55 AM 34.0 °F 22.4 °F 33.8 °F 99% 29.61 in 5.0 mi North 20.7 mph - 0.04 in Snow Light Snow
11:56 AM 33.8 °F 21.6 °F 33.8 °F 100% 29.61 in 4.0 mi North 23.0 mph - N/A Snow Light Snow
12:27 PM 33.8 °F 21.3 °F 33.8 °F 100% 29.60 in 2.5 mi North 24.2 mph 31.1 mph N/A Snow Light Snow
12:35 PM 33.8 °F 20.8 °F 33.8 °F 100% 29.59 in 1.8 mi North 26.5 mph 32.2 mph N/A Snow Light Snow
12:37 PM 33.8 °F 20.8 °F 33.8 °F 100% 29.59 in 1.8 mi North 26.5 mph 32.2 mph N/A Snow Light Snow
12:41 PM 33.8 °F 21.3 °F 33.8 °F 100% 29.59 in 2.0 mi North 24.2 mph 32.2 mph N/A Snow Light Snow
12:55 PM 33.3 °F 20.3 °F 33.1 °F 99% 29.58 in 2.5 mi North 25.3 mph 34.5 mph 0.06 in Snow Light Snow
12:57 PM 33.8 °F 20.8 °F 33.8 °F 100% 29.58 in 2.0 mi North 26.5 mph 33.4 mph N/A Snow Light Snow
1:05 PM 33.8 °F 20.1 °F 33.8 °F 100% 29.57 in 1.8 mi North 29.9 mph 40.3 mph N/A Snow Light Snow
1:19 PM 33.8 °F 20.5 °F 33.8 °F 100% 29.58 in 1.2 mi North 27.6 mph 36.8 mph N/A Snow Light Snow
1:30 PM 33.8 °F 20.3 °F 32.0 °F 93% 29.58 in 1.2 mi North 28.8 mph 32.2 mph N/A Snow Light Snow
1:32 PM 33.8 °F 20.3 °F 32.0 °F 93% 29.58 in 1.0 mi North 28.8 mph 32.2 mph N/A Snow Light Snow
1:38 PM 33.8 °F 20.1 °F 32.0 °F 93% 29.57 in 1.0 mi North 29.9 mph 38.0 mph N/A Snow Light Snow
1:55 PM 33.1 °F 19.1 °F 32.9 °F 99% 29.57 in 1.0 mi North 29.9 mph 38.0 mph 0.05 in Snow Light Snow
2:03 PM 33.8 °F 20.1 °F 33.8 °F 100% 29.57 in 1.0 mi North 29.9 mph 42.6 mph N/A Snow Light Snow
2:09 PM 33.8 °F 19.9 °F 33.8 °F 100% 29.57 in 1.0 mi North 31.1 mph 42.6 mph N/A Snow Light Snow
2:18 PM 33.8 °F 20.1 °F 33.8 °F 100% 29.57 in 1.2 mi North 29.9 mph 38.0 mph N/A Snow Light Snow
2:24 PM 33.8 °F 19.6 °F 33.8 °F 100% 29.57 in 1.5 mi North 32.2 mph 41.4 mph N/A Snow Light Snow
2:30 PM 33.8 °F 20.5 °F 33.8 °F 100% 29.58 in 1.5 mi NNW 27.6 mph 41.4 mph N/A Snow Light Snow
2:55 PM 33.4 °F 19.1 °F 33.1 °F 99% 29.59 in 1.5 mi North 32.2 mph 38.0 mph 0.01 in Snow Light Snow
3:01 PM 33.8 °F 20.5 °F 33.8 °F 100% 29.60 in 2.0 mi NNW 27.6 mph 35.7 mph N/A Snow Light Snow
3:55 PM 33.3 °F 19.8 °F 33.1 °F 99% 29.61 in 1.8 mi NNW 27.6 mph 38.0 mph 0.01 in Snow Light Snow
3:59 PM 33.8 °F 20.3 °F 33.8 °F 100% 29.62 in 1.2 mi NNW 28.8 mph 35.7 mph N/A Snow Light Snow
4:07 PM 33.8 °F 20.5 °F 33.8 °F 100% 29.62 in 1.0 mi NNW 27.6 mph 35.7 mph N/A Snow Light Snow
4:12 PM 33.8 °F 21.0 °F 32.0 °F 93% 29.62 in 0.8 mi NNW 25.3 mph 33.4 mph N/A Snow Light Snow
4:14 PM 33.8 °F 21.3 °F 32.0 °F 93% 29.62 in 0.8 mi NNW 24.2 mph 33.4 mph N/A Snow Light Snow
4:20 PM 33.8 °F 20.8 °F 32.0 °F 93% 29.62 in 0.8 mi NNW 26.5 mph 34.5 mph N/A Snow Light Snow
4:55 PM 33.1 °F 20.3 °F 32.7 °F 99% 29.63 in 0.8 mi NNW 24.2 mph 32.2 mph 0.02 in Snow Light Snow
5:00 PM 33.8 °F 21.3 °F 32.0 °F 93% 29.64 in 0.8 mi NNW 24.2 mph 34.5 mph N/A Snow Light Snow
5:03 PM 33.8 °F 21.0 °F 32.0 °F 93% 29.64 in 0.8 mi NNW 25.3 mph 33.4 mph N/A Snow Light Snow
5:09 PM 33.8 °F 21.6 °F 32.0 °F 93% 29.64 in 0.8 mi NNW 23.0 mph 33.4 mph N/A Rain Light Freezing Rain
5:10 PM 33.8 °F 21.0 °F 32.0 °F 93% 29.64 in 1.0 mi NNW 25.3 mph 33.4 mph N/A Rain Light Freezing Rain
5:12 PM 33.8 °F 21.0 °F 32.0 °F 93% 29.64 in 1.0 mi NNW 25.3 mph 33.4 mph N/A Rain Light Freezing Rain
5:15 PM 33.8 °F 20.8 °F 33.8 °F 100% 29.64 in 1.5 mi NNW 26.5 mph 31.1 mph N/A Rain Light Freezing Rain
5:18 PM 33.8 °F 20.8 °F 33.8 °F 100% 29.65 in 2.0 mi NNW 26.5 mph 35.7 mph N/A Rain Light Freezing Rain
5:28 PM 33.8 °F 22.2 °F 33.8 °F 100% 29.65 in 2.5 mi NW 20.7 mph 33.4 mph N/A Rain Light Freezing Rain
5:31 PM 32.0 °F 18.9 °F 32.0 °F 100% 29.63 in 2.5 mi NNW 24.2 mph 31.1 mph N/A Snow Light Snow
5:55 PM 33.3 °F 19.8 °F 33.1 °F 99% 29.66 in 2.5 mi NNW 27.6 mph 36.8 mph 0.00 in Snow Light Snow
6:15 PM 33.8 °F 20.1 °F 33.8 °F 100% 29.68 in 6.0 mi NNW 29.9 mph 39.1 mph N/A Snow Light Snow
6:55 PM 33.6 °F 20.1 °F 33.4 °F 99% 29.71 in 4.0 mi NNW 28.8 mph 35.7 mph 0.02 in Snow Light Snow
7:21 PM 33.8 °F 20.5 °F 33.8 °F 100% 29.73 in 9.0 mi NW 27.6 mph 35.7 mph N/A Snow Light Snow
7:29 PM 33.8 °F 19.9 °F 33.8 °F 100% 29.73 in 7.0 mi NNW 31.1 mph 38.0 mph N/A Snow Light Snow
7:44 PM 33.8 °F 20.1 °F 33.8 °F 100% 29.73 in 4.0 mi NNW 29.9 mph 40.3 mph N/A Snow Light Snow
7:55 PM 33.3 °F 19.8 °F 33.1 °F 99% 29.73 in 3.0 mi NNW 27.6 mph 40.3 mph 0.00 in Snow Light Snow
8:55 PM 33.4 °F 20.1 °F 33.3 °F 99% 29.75 in 5.0 mi NNW 27.6 mph 34.5 mph 0.00 in Snow Light Snow
9:15 PM 33.8 °F 20.3 °F 32.0 °F 93% 29.76 in 10.0 mi NNW 28.8 mph 35.7 mph N/A   Mostly Cloudy
9:24 PM 33.8 °F 20.5 °F 32.0 °F 93% 29.77 in 10.0 mi NNW 27.6 mph 36.8 mph N/A Rain Light Rain
9:39 PM 33.8 °F 20.3 °F 32.0 °F 93% 29.77 in 10.0 mi NNW 28.8 mph 35.7 mph N/A Rain Light Rain
9:55 PM 34.3 °F 21.5 °F 31.6 °F 90% 29.78 in 10.0 mi NNW 26.5 mph 34.5 mph 0.00 in   Mostly Cloudy
10:00 PM 33.8 °F 21.3 °F 32.0 °F 93% 29.78 in 10.0 mi NNW 24.2 mph 32.2 mph N/A   Overcast
10:03 PM 33.8 °F 21.3 °F 32.0 °F 93% 29.78 in 10.0 mi NNW 24.2 mph 32.2 mph N/A   Overcast
10:55 PM 34.5 °F 22.5 °F 31.3 °F 88% 29.80 in 10.0 mi NNW 23.0 mph 33.4 mph N/A   Scattered Clouds
11:55 PM 34.2 °F 22.1 °F 30.7 °F 87% 29.81 in 10.0 mi NNW 23.0 mph 29.9 mph N/A   Partly Cloudy